Regional Weather Roundup
Issued by NWS

Home | Current Version | Previous Version | Graphics & Text | Print | Product List | Glossary On
Versions: 1 2 3 4 5 6 7 8 9 10 11 12 13 14 15 16 17 18 19 20 21 22 23 24 25 26 27 28 29 30 31 32 33 34 35 36 37 38 39 40 41 42 43 44 45 46 47 48 49 50
000
ASUS45 KBOU 241907
RWRCO

WEATHER ROUNDUP FOR COLORADO
NATIONAL WEATHER SERVICE DENVER/BOULDER CO
100 PM MDT FRI APR 24 2015

NOTE: "FAIR" INDICATES FEW OR NO CLOUDS BELOW 12000 FEET WITH NO
SIGNIFICANT WEATHER AND/OR OBSTRUCTIONS TO VISIBILITY.

COZ001>005-013-030-031-242000-
...NORTHWEST COLORADO...

CITY           SKY/WX    TMP DP  RH WIND       PRES   REMARKS
CRAIG          PTSUNNY   57  29  34 W6        29.73F
HAYDEN         PTSUNNY   55  21  26 W20G30    29.75F
MEEKER         RAIN      47  33  58 W8        29.77R
MOUNT WERNER   NOT AVBL
STEAMBOAT SPGS CLOUDY    52  25  34 W12       29.75S
WALDEN         PTSUNNY   52  23  32 W24G30    29.76F
$$

COZ006>008-011-242000-
...WEST CENTRAL VALLEYS...

CITY           SKY/WX    TMP DP  RH WIND       PRES   REMARKS
GRAND JUNCTION MOSUNNY   65  30  27 S12G20    29.73F
MONTROSE       LGT RAIN  55  30  38 W15G23    29.81R
EAGLE          PTSUNNY   52  27  37 NW24G31   29.77F
RIFLE          CLOUDY    61  27  27 SE14      29.73F
DELTA          PTSUNNY   66  24  20 SW7G17    29.75F
NUCLA          LGT RAIN  55  28  35 W23G31    29.85S
$$

COZ017>023-064>068-242000-
...SOUTHWEST COLORADO...

CITY           SKY/WX    TMP DP  RH WIND       PRES   REMARKS
DURANGO        PTSUNNY   54  27  35 W10       29.86S
CORTEZ         CLOUDY    56  24  29 W12       29.84F
PAGOSA SPRINGS PTSUNNY   49  22  34 W15G21    29.88F THUNDER
TELLURIDE      CLOUDY    42  20  40 W7G16     29.92R THUNDER
WOLF CREEK PAS NOT AVBL
$$

COZ009-010-012-014-032>034-037-058>063-242000-
...CENTRAL COLORADO...

CITY           SKY/WX    TMP DP  RH WIND       PRES   REMARKS
ASPEN          CLOUDY    46  26  45 W20G33    29.81R
BUENA VISTA    CLOUDY    53  15  22 W3        29.76F
COPPER MTN     CLOUDY    34  14  44 S7        29.92S WCI  28
BERTHOUD PASS  PTSUNNY   28  19  69 NE7       29.93F WCI  21
COTTONWOOD PAS CLOUDY    45  19  36 N8G17     29.84F
GUNNISON       CLOUDY    48  21  34 N8        29.85F
KREMMLING      LGT RAIN  46  28  49 N3G21     29.79S
LEADVILLE      CLOUDY    35  21  56 N18G28    29.86R WCI  24
MONARCH PASS   CLOUDY    32  19  59 W21G33    30.02F HAZE    WCI  20
SALIDA         CLOUDY    54  23  30 W17       29.84F
SUNLIGHT       CLOUDY    34  28  80 CALM      29.93F
WILKERSON PASS LGT RAIN  36  16  44 N8        29.90F
$$

COZ069>075-242000-
...SAN LUIS VALLEY/SANGRE DE CRISTO MOUNTAINS...

CITY           SKY/WX    TMP DP  RH WIND       PRES   REMARKS
ALAMOSA        PTSUNNY   54  18  24 SW10      29.78F
LA VETA PASS   CLOUDY    39  25  56 S9G21     29.85F
SAGUACHE       CLOUDY    50  19  29 N5        29.80F
$$

COZ035-036-038>040-242000-
...NORTHERN COLORADO FRONT RANGE...

CITY           SKY/WX    TMP DP  RH WIND       PRES   REMARKS
DENVER INTL AP MOSUNNY   65  28  24 E10       29.66F
DMNS CITY PARK   N/A     66  25  21 SE6       29.64F
AURORA         PTSUNNY   62  25  24 NE7       29.68F
FRONT RANGE AP PTSUNNY  N/A N/A N/A CALM      29.68F
ERIE MUNI ARPT MOSUNNY   65  24  21 N5        29.64F
BOULDER MUN AP CLOUDY    64  28  25 E7        29.64F
CENTENNIAL     PTSUNNY   61  24  24 E7        29.68F
BROOMFIELD     PTSUNNY   64  23  20 N6        29.67
FORT COLLINS   PTSUNNY   61  34  36 NW9       29.67S
LONGMONT       PTSUNNY   65  32  28 NW7       29.66F
$$

COZ041-046-047-076>085-087-088-242000-
...PIKES PEAK/PALMER DIVIDE AND SOUTHERN FOOTHILLS...

CITY           SKY/WX    TMP DP  RH WIND       PRES   REMARKS
COLO. SPRINGS  PTSUNNY   61  19  19 CALM      29.68F
A. F. ACADEMY  PTSUNNY   58  19  21 NE8       29.68F
ELLICOTT       PTSUNNY  N/A N/A N/A NE8       29.66F
FALCON         PTSUNNY   59  20  22 NE9G17    29.71F
FORT CARSON    PTSUNNY   60  25  25 SW12G21   29.66F
LIMON          PTSUNNY   65  30  27 VRB5      29.65F
MONUMENT HILL  PTSUNNY   55  23  28 N5G16     29.71F
TRINIDAD       PTSUNNY   63  21  20 W6G18     29.66F
$$

COZ042>045-048>051-090-091-242000-
...NORTHEAST COLORADO...

CITY           SKY/WX    TMP DP  RH WIND       PRES   REMARKS
GREELEY ARPT   MOSUNNY   70  28  21 S5        29.64F
AKRON          PTSUNNY   66  30  26 W13       29.63F
BURLINGTON     PTSUNNY   70  37  29 N10G16    29.61F
WRAY           PTSUNNY   73  43  34 NE10G20   29.60F
STERLING       PTSUNNY   72  36  26 NW6       29.59F
HOLYOKE        PTSUNNY   68  36  30 NW7       29.62S
FORT MORGAN    PTSUNNY   70  29  21 W8G17     29.63F
$$

COZ086-089-092>099-242000-
...SOUTHEAST COLORADO...

CITY           SKY/WX    TMP DP  RH WIND       PRES   REMARKS
PUEBLO         MOSUNNY   67  23  19 CALM      29.61F
LA JUNTA       PTSUNNY   74  31  20 VRB7      29.59F
LAMAR          PTSUNNY   69  39  33 SW5       29.58F
SPRINGFIELD      N/A     68  29  23 S12G18    29.61F
$$



USA.gov is the U.S. government's official web portal to all federal, state and local government web resources and services.